Regional Weather Roundup
Issued by NWS Bismarck, ND

Home | Current Version | Previous Version | Text Only | Print | Product List | Glossary On
Versions: 1 2 3 4 5 6 7 8 9 10 11 12 13 14 15 16 17 18 19 20 21 22 23 24 25 26 27 28 29 30 31 32 33 34 35 36 37 38 39 40 41 42 43 44 45 46 47 48 49 50
000
ASUS43 KBIS 060101
RWRBIS

NWR BROADCAST TEXT
NATIONAL WEATHER SERVICE BISMARCK ND
800 PM CDT TUE MAY 05 2015

NOTE: "FAIR" INDICATES FEW OR NO CLOUDS BELOW 12,000 FEET WITH NO
SIGNIFICANT WEATHER AND/OR OBSTRUCTIONS TO VISIBILITY.


CITY           SKY/WX    TMP DP  RH WIND       PRES   REMARKS
WILLISTON      SUNNY     76  49  38 SE17G29   29.74S
MINOT          PTCLDY    74  32  21 SE18G25   29.81F
MINOT AFB      PTCLDY    73  33  22 S16       29.80F
BISMARCK       CLEAR     74  45  35 S15       29.84S
DICKINSON      CLEAR     66  49  54 S23G33    29.79F
GARRISON         N/A     72  41  32 S14       29.82F
HETTINGER ARPT PTCLDY    63  51  65 SE16G23   29.82F
JAMESTOWN      PTCLDY    72  49  44 SE20G28   29.90S
CARRINGTON     FAIR      73  41  31 S18G24    29.90F
HAZEN          FAIR      73  43  33 SE17G24   29.82S
OAKES            N/A     70  55  60 SE16      29.93S
STANLEY        FAIR      72  46  40 S17G28    29.80F
$$

CITY           SKY/WX    TMP DP  RH WIND       PRES   REMARKS
GRAND FORKS    PTCLDY    74  31  20 SE12      29.93F
GRAND FORKS AF PTCLDY    73  33  23 SE8       29.93F
DEVILS LAKE    CLOUDY    72  32  23 SE10      29.90F
FARGO          MOCLDY    74  50  42 S22G30    29.96S
CANDO          FAIR      72  28  20 SE12      29.91S
CAVALIER       FAIR      73  23  15 SE9       29.94S
GRAFTON        FAIR      73  27  17 SE12      29.95S
GWINNER        PTCLDY    72  54  53 SE18      29.95S
LANGDON        MOCLDY    72  21  15 S15       29.94F
WALHALLA       FAIR      72  27  18 SE10      29.94S
$$

CITY           SKY/WX    TMP DP  RH WIND       PRES   REMARKS
ABERDEEN       CLOUDY    70  54  56 S17       29.93R
MOBRIDGE       MOCLDY    69  52  54 S20       29.85S
BUFFALO          N/A     65  49  56 SE23G33   29.72F
RAPID CITY     CLOUDY    62  51  67 S21       29.83F
GLASGOW        MOSUNNY   78  40  25 SE8       29.61F
SIDNEY         SUNNY     73  46  38 SE18G28   29.73R
WOLF POINT     MOSUNNY   80  45  28 SE16G22   29.63S
GLENDIVE       MOSUNNY   72  48  43 SE21      29.72S
MILES CITY     MOSUNNY   75  48  38 SE22G28   29.63S
BAKER          MOSUNNY   65  50  58 SE23G35   29.75F
$$

CITY           SKY/WX    TMP DP  RH WIND       PRES   REMARKS
BILLINGS       PTSUNNY   67  42  40 NW30G38   29.64R
GREAT FALLS    LGT RAIN  56  47  71 N7        29.75R
$$




USA.gov is the U.S. government's official web portal to all federal, state and local government web resources and services.